Location: Newark
(36.0797°N, 3.9744°E)
Time: 06:23:03
(UTC+00:00)

Vanguard 2 Rocket - Pass Details

Date: 13 December 2019
Orbit: 554 x 3326 km, 32.9° (Epoch: 17 January)

Event Time Altitude Azimuth Distance (km) Brightness Sun altitude
Rises 12:37:48 0° 192° (SSW) 7,213 12.7 29.1°
Reaches altitude 10° 12:45:13 10° 177° (S) 6,276 12.5 28.7°
Maximum altitude 12:56:50 19° 141° (SE) 5,325 11.4 27.9°
Drops below altitude 10° 13:06:59 10° 104° (ESE) 5,493 10.9 27.2°
Sets 13:12:35 0° 88° (E) 6,062 10.9 26.7°
